Location: Rumah Dana
(3.1167°N, 113.0167°E)
Time: 12:15:37
(UTC+00:00)

CZ-2D R/B - Pass Details

Date: 03 August 2024
Orbit: 538 x 611 km, 98.0° (Epoch: 07 September)

Event Time Altitude Azimuth Distance (km) Brightness Sun altitude
Rises 21:57:30 0° 6° (N) 2,811 7.3 -7.8°
Reaches altitude 10° 21:59:39 10° 2° (N) 1,924 6.4 -7.3°
Maximum altitude 22:03:46 62° 282° (WNW) 682 3.6 -6.3°
Drops below altitude 10° 22:08:00 10° 201° (SSW) 1,963 5.8 -5.3°
Sets 22:10:13 0° 198° (SSW) 2,874 6.6 -4.8°
